Time,TemperatureF,DewpointF,PressureIn,WindDirection,WindDirectionDegrees,WindSpeedMPH,WindSpeedGustMPH,Humidity,HourlyPrecipIn,Conditions,Clouds,dailyrainin,SolarRadiationWatts/m^2,SoftwareType,DateUTC
2013-03-07 00:00:00,40.3,37.6,29.67,South,171,1.0,4.0,90,0.00,-DZ,OVC,0.00,0.0,WeatherDisplay:10.37,2013-03-07 00:00:00,
2013-03-07 00:05:00,40.4,37.7,29.67,NE,37,6.9,6.9,90,0.00,-DZ,OVC,0.00,0.0,WeatherDisplay:10.37,2013-03-07 00:05:00,
2013-03-07 00:10:00,40.4,37.7,29.67,West,259,2.3,2.3,90,0.00,-DZ,OVC,0.00,0.0,WeatherDisplay:10.37,2013-03-07 00:10:00,
2013-03-07 00:15:00,40.3,37.6,29.67,WNW,303,2.0,6.0,90,0.00,-DZ,OVC,0.00,0.0,WeatherDisplay:10.37,2013-03-07 00:15:00,
2013-03-07 00:20:00,40.4,37.7,29.67,WNW,283,1.0,4.0,90,0.00,-RA,OVC,0.00,0.0,WeatherDisplay:10.37,2013-03-07 00:20:00,
2013-03-07 00:25:00,40.4,37.7,29.67,SW,234,2.0,5.0,90,0.00,-RA,OVC,0.00,0.0,WeatherDisplay:10.37,2013-03-07 00:25:00,
2013-03-07 00:30:00,40.4,37.7,29.67,West,270,1.0,4.0,90,0.00,-RA,OVC,0.00,0.0,WeatherDisplay:10.37,2013-03-07 00:30:00,
2013-03-07 00:35:00,40.4,37.7,29.67,West,270,2.3,2.3,90,0.00,-RA,OVC,0.00,0.0,WeatherDisplay:10.37,2013-03-07 00:35:00,
2013-03-07 00:40:00,40.4,37.7,29.67,SW,221,3.5,3.5,90,0.00,-RA,OVC,0.00,0.0,WeatherDisplay:10.37,2013-03-07 00:40:00,
2013-03-07 00:45:00,40.4,37.7,29.67,SW,232,0.0,4.0,90,0.00,-RA,OVC,0.00,0.0,WeatherDisplay:10.37,2013-03-07 00:45:00,
2013-03-07 00:50:00,40.3,37.6,29.67,South,189,1.0,4.0,90,0.00,-RA,OVC,0.00,0.0,WeatherDisplay:10.37,2013-03-07 00:50:00,
2013-03-07 00:55:00,40.3,37.6,29.67,South,190,2.0,5.0,90,0.00,-RA,OVC,0.00,0.0,WeatherDisplay:10.37,2013-03-07 00:55:00,
2013-03-07 01:00:00,40.3,37.6,29.67,East,97,3.5,3.5,90,0.00,-RA,OVC,0.00,0.0,WeatherDisplay:10.37,2013-03-07 01:00:00,
2013-03-07 01:05:00,40.3,37.6,29.67,South,177,3.5,3.5,90,0.00,-RA,OVC,0.00,0.0,WeatherDisplay:10.37,2013-03-07 01:05:00,
2013-03-07 01:10:00,40.3,37.9,29.67,SE,134,3.5,3.5,91,0.00,-RA,OVC,0.00,0.0,WeatherDisplay:10.37,2013-03-07 01:10:00,
2013-03-07 01:15:00,40.3,37.6,29.67,WNW,302,3.5,3.5,90,0.00,-RA,OVC,0.00,0.0,WeatherDisplay:10.37,2013-03-07 01:15:00,
2013-03-07 01:20:00,40.3,37.6,29.67,SE,127,4.6,4.6,90,0.00,-RA,OVC,0.00,0.0,WeatherDisplay:10.37,2013-03-07 01:20:00,
2013-03-07 01:25:00,40.4,37.7,29.66,SE,126,1.2,0.0,90,0.00,-RA,OVC,0.00,0.0,WeatherDisplay:10.37,2013-03-07 01:25:00,
2013-03-07 01:30:00,40.3,37.9,29.66,SSW,198,2.3,2.3,91,0.00,-RA,OVC,0.00,0.0,WeatherDisplay:10.37,2013-03-07 01:30:00,
2013-03-07 01:35:00,40.3,37.9,29.67,West,260,3.5,3.5,91,0.01,-RA,OVC,0.01,0.0,WeatherDisplay:10.37,2013-03-07 01:35:00,
2013-03-07 01:40:00,40.3,37.9,29.66,ENE,68,1.2,1.2,91,0.01,-RA,OVC,0.01,0.0,WeatherDisplay:10.37,2013-03-07 01:40:00,
2013-03-07 01:45:00,40.3,37.9,29.67,SSE,149,2.3,2.3,91,0.01,-RA,OVC,0.01,0.0,WeatherDisplay:10.37,2013-03-07 01:45:00,
2013-03-07 01:50:00,40.3,37.9,29.67,South,186,2.3,2.3,91,0.01,-RA,OVC,0.01,0.0,WeatherDisplay:10.37,2013-03-07 01:50:00,
2013-03-07 01:55:00,40.3,37.9,29.67,SSE,160,3.5,3.5,91,0.01,-RA,OVC,0.01,0.0,WeatherDisplay:10.37,2013-03-07 01:55:00,
2013-03-07 02:00:00,40.3,37.9,29.66,WNW,295,3.5,3.5,91,0.01,-RA,OVC,0.01,0.0,WeatherDisplay:10.37,2013-03-07 02:00:00,
2013-03-07 02:05:00,40.2,37.8,29.67,SSE,167,2.3,2.3,91,0.01,-DZ,OVC,0.01,0.0,WeatherDisplay:10.37,2013-03-07 02:05:00,
2013-03-07 02:10:00,40.2,38.1,29.67,ESE,120,3.5,3.5,92,0.02,-DZ,OVC,0.02,0.0,WeatherDisplay:10.37,2013-03-07 02:10:00,
2013-03-07 02:15:00,40.2,38.1,29.67,ESE,117,3.5,3.5,92,0.02,-DZ,OVC,0.02,0.0,WeatherDisplay:10.37,2013-03-07 02:15:00,
2013-03-07 02:20:00,40.1,38.0,29.66,WSW,242,2.0,2.0,92,0.02,-DZ,OVC,0.02,0.0,WeatherDisplay:10.37,2013-03-07 02:20:00,
2013-03-07 02:26:00,40.1,38.0,29.66,SSW,199,3.5,3.5,92,0.02,-DZ,OVC,0.02,0.0,WeatherDisplay:10.37,2013-03-07 02:26:00,
2013-03-07 02:31:00,40.1,38.0,29.66,WSW,250,3.5,3.5,92,0.02,-DZ,OVC,0.02,0.0,WeatherDisplay:10.37,2013-03-07 02:31:00,
2013-03-07 02:36:00,40.1,38.0,29.66,ESE,115,2.3,2.3,92,0.01,-DZ,OVC,0.02,0.0,WeatherDisplay:10.37,2013-03-07 02:36:00,
2013-03-07 02:41:00,40.1,38.0,29.66,NW,308,3.5,3.5,92,0.01,-DZ,OVC,0.02,0.0,WeatherDisplay:10.37,2013-03-07 02:41:00,
2013-03-07 02:46:00,40.1,38.2,29.66,SE,125,2.3,0.0,93,0.01,-DZ,OVC,0.02,0.0,WeatherDisplay:10.37,2013-03-07 02:46:00,
2013-03-07 02:51:00,40.1,38.2,29.66,West,276,2.3,2.3,93,0.01,-DZ,OVC,0.02,0.0,WeatherDisplay:10.37,2013-03-07 02:51:00,
2013-03-07 02:56:00,40.1,38.2,29.65,NW,321,2.3,2.3,93,0.01,-DZ,OVC,0.02,0.0,WeatherDisplay:10.37,2013-03-07 02:56:00,
2013-03-07 03:01:00,40.1,38.2,29.65,ESE,114,3.5,3.5,93,0.01,-DZ,OVC,0.02,0.0,WeatherDisplay:10.37,2013-03-07 03:01:00,
2013-03-07 03:06:00,40.1,38.2,29.65,SSE,149,3.5,3.5,93,0.01,-RA,OVC,0.02,0.0,WeatherDisplay:10.37,2013-03-07 03:06:00,
2013-03-07 03:11:00,40.1,38.2,29.65,NW,314,3.5,3.5,93,0.00,-RA,OVC,0.02,0.0,WeatherDisplay:10.37,2013-03-07 03:11:00,
2013-03-07 03:16:00,40.2,38.3,29.65,SE,129,3.5,3.5,93,0.00,-RA,OVC,0.02,0.0,WeatherDisplay:10.37,2013-03-07 03:16:00,
2013-03-07 03:21:00,40.2,38.3,29.65,NW,310,1.2,1.2,93,0.00,-RA,OVC,0.02,0.0,WeatherDisplay:10.37,2013-03-07 03:21:00,
2013-03-07 03:26:00,40.2,38.3,29.65,ESE,122,2.0,2.0,93,0.00,-RA,OVC,0.02,0.0,WeatherDisplay:10.37,2013-03-07 03:26:00,
2013-03-07 03:31:00,40.2,38.3,29.65,SSW,195,2.3,2.3,93,0.00,-RA,OVC,0.02,0.0,WeatherDisplay:10.37,2013-03-07 03:31:00,
2013-03-07 03:36:00,40.2,38.3,29.65,ESE,108,2.3,2.3,93,0.00,-RA,OVC,0.02,0.0,WeatherDisplay:10.37,2013-03-07 03:36:00,
2013-03-07 03:41:00,40.2,38.3,29.65,SE,136,2.3,2.3,93,0.00,-RA,OVC,0.02,0.0,WeatherDisplay:10.37,2013-03-07 03:41:00,
2013-03-07 03:46:00,40.2,38.3,29.64,South,174,2.3,2.3,93,0.00,-RA,OVC,0.02,0.0,WeatherDisplay:10.37,2013-03-07 03:46:00,
2013-03-07 03:51:00,40.3,38.4,29.64,WNW,295,3.5,3.5,93,0.00,OVC,,0.02,0.0,WeatherDisplay:10.37,2013-03-07 03:51:00,
2013-03-07 03:56:00,40.3,38.4,29.64,SE,137,3.5,3.5,93,0.00,OVC,,0.02,0.0,WeatherDisplay:10.37,2013-03-07 03:56:00,
2013-03-07 04:01:00,40.3,38.4,29.64,SSW,199,3.5,3.5,93,0.00,OVC,,0.02,0.0,WeatherDisplay:10.37,2013-03-07 04:01:00,
2013-03-07 04:07:00,40.4,38.3,29.64,SSE,162,3.5,3.5,92,0.00,OVC,,0.02,0.0,WeatherDisplay:10.37,2013-03-07 04:07:00,
2013-03-07 04:12:00,40.4,38.3,29.64,East,95,2.3,2.3,92,0.00,OVC,,0.02,0.0,WeatherDisplay:10.37,2013-03-07 04:12:00,
2013-03-07 04:17:00,40.4,38.5,29.64,SSW,208,2.3,2.3,93,0.00,OVC,,0.02,0.0,WeatherDisplay:10.37,2013-03-07 04:17:00,
2013-03-07 04:22:00,40.4,38.5,29.64,ENE,77,2.3,2.3,93,0.00,OVC,,0.02,0.0,WeatherDisplay:10.37,2013-03-07 04:22:00,
2013-03-07 04:27:00,40.5,38.6,29.64,SE,131,6.9,6.9,93,0.00,OVC,,0.02,0.0,WeatherDisplay:10.37,2013-03-07 04:27:00,
2013-03-07 04:32:00,40.5,38.6,29.64,SE,144,3.5,3.5,93,0.00,OVC,,0.02,0.0,WeatherDisplay:10.37,2013-03-07 04:32:00,
2013-03-07 04:37:00,40.5,38.6,29.64,WNW,295,2.3,2.3,93,0.00,OVC,,0.02,0.0,WeatherDisplay:10.37,2013-03-07 04:37:00,
2013-03-07 04:42:00,40.6,38.7,29.64,SE,136,3.5,3.5,93,0.00,OVC,,0.02,0.0,WeatherDisplay:10.37,2013-03-07 04:42:00,
2013-03-07 04:47:00,40.6,38.7,29.64,SW,231,2.3,2.3,93,0.00,OVC,,0.02,0.0,WeatherDisplay:10.37,2013-03-07 04:47:00,
2013-03-07 04:53:00,40.6,38.7,29.64,SW,231,2.3,2.3,93,0.00,OVC,,0.02,0.0,WeatherDisplay:10.37,2013-03-07 04:53:00,
2013-03-07 04:58:00,40.6,38.7,29.64,North,6,2.0,2.0,93,0.00,OVC,,0.02,0.0,WeatherDisplay:10.37,2013-03-07 04:58:00,
2013-03-07 05:00:00,40.6,38.7,29.64,NNW,335,2.3,2.3,93,0.01,RA,OVC,0.02,0.0,WeatherDisplay:10.37,2013-03-07 05:00:00,
2013-03-07 05:05:00,40.6,38.7,29.63,West,266,1.2,1.2,93,0.01,RA,OVC,0.02,0.0,WeatherDisplay:10.37,2013-03-07 05:05:00,
2013-03-07 05:10:00,40.6,38.7,29.63,WSW,239,5.8,5.8,93,0.01,OVC,,0.02,0.0,WeatherDisplay:10.37,2013-03-07 05:10:00,
2013-03-07 05:15:00,40.6,38.7,29.63,SE,143,2.3,2.3,93,0.01,OVC,,0.02,0.0,WeatherDisplay:10.37,2013-03-07 05:15:00,
2013-03-07 05:21:00,40.6,38.7,29.63,SSW,205,3.5,3.5,93,0.02,RA,OVC,0.03,0.0,WeatherDisplay:10.37,2013-03-07 05:21:00,
2013-03-07 05:26:00,40.7,38.8,29.63,SW,217,2.3,2.3,93,0.02,RA,OVC,0.03,0.0,WeatherDisplay:10.37,2013-03-07 05:26:00,
2013-03-07 05:31:00,40.7,38.8,29.63,WSW,239,2.3,2.3,93,0.02,OVC,,0.03,0.0,WeatherDisplay:10.37,2013-03-07 05:31:00,
2013-03-07 05:36:00,40.7,38.8,29.63,NW,304,3.5,3.5,93,0.02,OVC,,0.03,0.0,WeatherDisplay:10.37,2013-03-07 05:36:00,
2013-03-07 05:41:00,40.7,38.8,29.63,SE,139,3.5,3.5,93,0.02,OVC,,0.03,0.0,WeatherDisplay:10.37,2013-03-07 05:41:00,
2013-03-07 05:46:00,40.7,38.8,29.63,ESE,114,3.5,3.5,93,0.02,OVC,,0.03,0.0,WeatherDisplay:10.37,2013-03-07 05:46:00,
2013-03-07 05:51:00,40.7,38.8,29.62,West,273,3.5,3.5,93,0.02,OVC,,0.03,0.0,WeatherDisplay:10.37,2013-03-07 05:51:00,
2013-03-07 05:56:00,40.7,38.8,29.62,SSE,158,3.5,3.5,93,0.02,OVC,,0.03,0.0,WeatherDisplay:10.37,2013-03-07 05:56:00,
2013-03-07 06:01:00,40.8,38.9,29.62,ESE,108,3.5,3.5,93,0.02,RA,OVC,0.04,0.0,WeatherDisplay:10.37,2013-03-07 06:01:00,
2013-03-07 06:06:00,40.8,38.9,29.62,NE,46,1.2,1.2,93,0.02,RA,OVC,0.04,0.0,WeatherDisplay:10.37,2013-03-07 06:06:00,
2013-03-07 06:11:00,40.8,38.9,29.62,NNE,13,1.2,1.2,93,0.02,OVC,,0.04,0.0,WeatherDisplay:10.37,2013-03-07 06:11:00,
2013-03-07 06:16:00,40.8,38.9,29.62,WSW,253,2.3,2.3,93,0.02,OVC,,0.04,0.0,WeatherDisplay:10.37,2013-03-07 06:16:00,
2013-03-07 06:22:00,40.9,39.0,29.62,SW,235,2.3,2.3,93,0.01,-DZ,OVC,0.04,0.0,WeatherDisplay:10.37,2013-03-07 06:22:00,
2013-03-07 06:27:00,41.0,39.1,29.62,SW,217,1.2,1.2,93,0.01,-DZ,OVC,0.04,0.0,WeatherDisplay:10.37,2013-03-07 06:27:00,
2013-03-07 06:32:00,41.1,39.0,29.62,WNW,285,1.2,1.2,92,0.01,-DZ,OVC,0.04,0.0,WeatherDisplay:10.37,2013-03-07 06:32:00,
2013-03-07 06:37:00,41.1,39.0,29.62,NW,316,1.2,1.2,92,0.01,OVC,,0.04,0.0,WeatherDisplay:10.37,2013-03-07 06:37:00,
2013-03-07 06:42:00,41.1,39.0,29.62,NW,304,3.5,3.5,92,0.01,OVC,,0.04,0.0,WeatherDisplay:10.37,2013-03-07 06:42:00,
2013-03-07 06:47:00,41.1,39.0,29.62,WNW,297,4.0,4.0,92,0.01,OVC,,0.04,0.0,WeatherDisplay:10.37,2013-03-07 06:47:00,
2013-03-07 06:52:00,41.1,39.0,29.62,North,349,2.3,2.3,92,0.01,OVC,,0.04,0.0,WeatherDisplay:10.37,2013-03-07 06:52:00,
2013-03-07 06:57:00,41.1,39.0,29.62,South,174,3.5,3.5,92,0.01,OVC,,0.04,0.0,WeatherDisplay:10.37,2013-03-07 06:57:00,
2013-03-07 07:02:00,41.2,39.1,29.62,SE,141,2.3,2.3,92,0.00,OVC,,0.04,0.0,WeatherDisplay:10.37,2013-03-07 07:02:00,
2013-03-07 07:07:00,41.2,39.1,29.62,ESE,122,3.5,3.5,92,0.00,OVC,,0.04,0.0,WeatherDisplay:10.37,2013-03-07 07:07:00,
2013-03-07 07:12:00,41.3,39.2,29.62,ESE,111,4.6,4.6,92,0.00,OVC,,0.04,0.0,WeatherDisplay:10.37,2013-03-07 07:12:00,
2013-03-07 07:17:00,41.3,39.2,29.62,NW,307,3.5,3.5,92,0.00,OVC,,0.04,0.0,WeatherDisplay:10.37,2013-03-07 07:17:00,
2013-03-07 07:22:00,41.4,39.3,29.62,SW,226,3.5,3.5,92,0.00,OVC,,0.04,0.0,WeatherDisplay:10.37,2013-03-07 07:22:00,
2013-03-07 07:27:00,41.4,39.3,29.62,SE,131,3.5,3.5,92,0.00,OVC,,0.04,0.0,WeatherDisplay:10.37,2013-03-07 07:27:00,
2013-03-07 07:32:00,41.5,39.3,29.62,SE,126,3.5,3.5,92,0.00,-DZ,OVC,0.04,0.0,WeatherDisplay:10.37,2013-03-07 07:32:00,
2013-03-07 07:40:00,41.6,39.4,29.62,SE,141,0.0,3.0,92,0.00,-DZ,OVC,0.04,0.0,WeatherDisplay:10.37,2013-03-07 07:40:00,
2013-03-07 07:45:00,41.6,39.4,29.62,SE,130,1.0,6.0,92,0.00,-DZ,OVC,0.04,0.0,WeatherDisplay:10.37,2013-03-07 07:45:00,
2013-03-07 07:54:00,41.8,39.6,29.62,WNW,300,3.0,3.0,92,0.00,-DZ,OVC,0.04,0.0,WeatherDisplay:10.37,2013-03-07 07:54:00,
2013-03-07 07:59:00,41.8,39.4,29.62,ESE,113,2.3,2.3,91,0.00,-DZ,OVC,0.04,0.0,WeatherDisplay:10.37,2013-03-07 07:59:00,
2013-03-07 08:04:00,41.9,39.5,29.62,SE,129,3.0,3.0,91,0.00,OVC,,0.04,0.0,WeatherDisplay:10.37,2013-03-07 08:04:00,
2013-03-07 08:09:00,41.9,39.7,29.62,East,95,6.9,6.9,92,0.00,OVC,,0.04,0.0,WeatherDisplay:10.37,2013-03-07 08:09:00,
2013-03-07 08:14:00,41.9,39.7,29.62,WSW,239,5.0,5.0,92,0.00,OVC,,0.04,0.0,WeatherDisplay:10.37,2013-03-07 08:14:00,
2013-03-07 08:19:00,42.0,39.8,29.62,SE,146,3.5,3.5,92,0.00,OVC,,0.04,0.0,WeatherDisplay:10.37,2013-03-07 08:19:00,
2013-03-07 08:24:00,42.0,39.8,29.62,West,264,2.3,2.3,92,0.00,OVC,,0.04,0.0,WeatherDisplay:10.37,2013-03-07 08:24:00,
2013-03-07 08:29:00,42.0,39.8,29.62,SE,131,3.5,3.5,92,0.00,OVC,,0.04,0.0,WeatherDisplay:10.37,2013-03-07 08:29:00,
2013-03-07 08:34:00,42.1,39.9,29.62,WNW,298,5.8,5.8,92,0.00,OVC,,0.04,0.0,WeatherDisplay:10.37,2013-03-07 08:34:00,
2013-03-07 08:39:00,42.1,39.9,29.62,SE,134,4.6,4.6,92,0.00,OVC,,0.04,0.0,WeatherDisplay:10.37,2013-03-07 08:39:00,
2013-03-07 08:44:00,42.2,40.0,29.62,SSE,148,2.3,2.3,92,0.00,OVC,,0.04,0.0,WeatherDisplay:10.37,2013-03-07 08:44:00,
2013-03-07 08:49:00,42.2,40.0,29.62,ESE,111,3.5,3.5,92,0.00,OVC,,0.04,0.0,WeatherDisplay:10.37,2013-03-07 08:49:00,
2013-03-07 08:54:00,42.2,40.0,29.62,WNW,298,2.3,2.3,92,0.00,OVC,,0.04,0.0,WeatherDisplay:10.37,2013-03-07 08:54:00,
2013-03-07 08:59:00,42.3,40.1,29.62,SSE,152,3.5,3.5,92,0.00,OVC,,0.04,0.0,WeatherDisplay:10.37,2013-03-07 08:59:00,
2013-03-07 09:04:00,42.3,40.1,29.62,SE,131,4.6,4.6,92,0.00,OVC,,0.04,0.0,WeatherDisplay:10.37,2013-03-07 09:04:00,
2013-03-07 09:09:00,42.3,40.1,29.62,SSE,159,3.5,3.5,92,0.00,OVC,,0.04,0.0,WeatherDisplay:10.37,2013-03-07 09:09:00,
2013-03-07 09:15:00,42.3,40.1,29.62,WNW,302,3.5,3.5,92,0.00,OVC,,0.04,0.0,WeatherDisplay:10.37,2013-03-07 09:15:00,
2013-03-07 09:20:00,42.4,40.2,29.62,WNW,301,1.2,1.2,92,0.00,OVC,,0.04,0.0,WeatherDisplay:10.37,2013-03-07 09:20:00,
2013-03-07 09:25:00,42.4,40.5,29.62,SE,125,2.3,2.3,93,0.01,RA,OVC,0.05,0.0,WeatherDisplay:10.37,2013-03-07 09:25:00,
2013-03-07 09:30:00,42.4,40.5,29.62,North,352,3.5,3.5,93,0.01,RA,OVC,0.05,0.0,WeatherDisplay:10.37,2013-03-07 09:30:00,
2013-03-07 09:35:00,42.5,40.6,29.62,SSW,200,3.5,3.5,93,0.01,-DZ,OVC,0.05,0.0,WeatherDisplay:10.37,2013-03-07 09:35:00,
2013-03-07 09:40:00,42.5,40.6,29.62,SSE,165,4.6,4.6,93,0.01,-DZ,OVC,0.05,0.0,WeatherDisplay:10.37,2013-03-07 09:40:00,
2013-03-07 09:45:00,42.5,40.6,29.62,ESE,108,4.6,4.6,93,0.01,-DZ,OVC,0.05,0.0,WeatherDisplay:10.37,2013-03-07 09:45:00,
2013-03-07 09:50:00,42.5,40.6,29.62,SE,129,3.5,3.5,93,0.01,-DZ,OVC,0.05,0.0,WeatherDisplay:10.37,2013-03-07 09:50:00,
2013-03-07 09:55:00,42.6,40.7,29.62,NW,308,4.6,4.6,93,0.01,-DZ,OVC,0.05,0.0,WeatherDisplay:10.37,2013-03-07 09:55:00,
2013-03-07 10:00:00,42.7,40.5,29.61,South,177,1.0,5.0,92,0.00,-DZ,OVC,0.05,0.0,WeatherDisplay:10.37,2013-03-07 10:00:00,
2013-03-07 10:05:00,42.7,40.5,29.61,SSE,150,3.5,3.5,92,0.01,-DZ,OVC,0.05,0.0,WeatherDisplay:10.37,2013-03-07 10:05:00,
2013-03-07 10:10:00,42.7,40.5,29.61,SE,137,4.6,4.6,92,0.01,-DZ,OVC,0.05,0.0,WeatherDisplay:10.37,2013-03-07 10:10:00,
2013-03-07 10:15:00,42.8,40.6,29.61,NW,312,4.6,4.6,92,0.01,-DZ,OVC,0.05,0.0,WeatherDisplay:10.37,2013-03-07 10:15:00,
2013-03-07 10:20:00,42.8,40.6,29.61,SSE,166,2.3,2.3,92,0.00,-DZ,OVC,0.05,0.0,WeatherDisplay:10.37,2013-03-07 10:20:00,
2013-03-07 10:25:00,42.8,40.6,29.61,SSW,208,3.5,3.5,92,0.00,-DZ,OVC,0.05,0.0,WeatherDisplay:10.37,2013-03-07 10:25:00,
2013-03-07 10:30:00,42.8,40.6,29.61,South,177,4.6,4.6,92,0.00,-DZ,OVC,0.05,0.0,WeatherDisplay:10.37,2013-03-07 10:30:00,
2013-03-07 10:35:00,42.8,40.6,29.60,ESE,123,4.0,4.0,92,0.00,-DZ,OVC,0.05,0.0,WeatherDisplay:10.37,2013-03-07 10:35:00,
2013-03-07 10:40:00,42.8,40.6,29.60,West,280,6.9,6.9,92,0.00,-DZ,OVC,0.05,0.0,WeatherDisplay:10.37,2013-03-07 10:40:00,
2013-03-07 10:45:00,42.9,40.7,29.60,WSW,245,3.5,3.5,92,0.00,-DZ,OVC,0.05,0.0,WeatherDisplay:10.37,2013-03-07 10:45:00,
2013-03-07 10:50:00,42.9,40.7,29.60,ESE,106,1.2,1.2,92,0.00,-DZ,OVC,0.05,0.0,WeatherDisplay:10.37,2013-03-07 10:50:00,
2013-03-07 10:56:00,43.1,40.9,29.60,SSE,167,6.0,6.0,92,0.00,-DZ,OVC,0.05,0.0,WeatherDisplay:10.37,2013-03-07 10:56:00,
2013-03-07 11:01:00,43.3,40.8,29.60,ESE,120,3.5,3.5,91,0.00,-DZ,OVC,0.05,0.0,WeatherDisplay:10.37,2013-03-07 11:01:00,
2013-03-07 11:06:00,43.5,41.0,29.59,SW,224,5.8,5.8,91,0.00,-DZ,OVC,0.05,0.0,WeatherDisplay:10.37,2013-03-07 11:06:00,
2013-03-07 11:11:00,43.5,41.0,29.59,SSW,200,4.6,4.6,91,0.00,-DZ,OVC,0.06,0.0,WeatherDisplay:10.37,2013-03-07 11:11:00,
2013-03-07 11:16:00,43.7,41.2,29.59,NW,308,2.3,2.3,91,0.01,-DZ,OVC,0.06,0.0,WeatherDisplay:10.37,2013-03-07 11:16:00,
2013-03-07 11:21:00,43.7,41.2,29.59,SE,137,6.9,6.9,91,0.01,-DZ,OVC,0.06,0.0,WeatherDisplay:10.37,2013-03-07 11:21:00,
2013-03-07 11:26:00,43.8,41.3,29.60,NW,308,9.2,9.2,91,0.01,-DZ,OVC,0.06,0.0,WeatherDisplay:10.37,2013-03-07 11:26:00,
2013-03-07 11:31:00,43.9,41.4,29.60,North,353,5.8,5.8,91,0.02,-DZ,OVC,0.06,0.0,WeatherDisplay:10.37,2013-03-07 11:31:00,
2013-03-07 11:36:00,43.9,41.4,29.60,SE,136,4.0,4.0,91,0.02,-DZ,OVC,0.06,0.0,WeatherDisplay:10.37,2013-03-07 11:36:00,
2013-03-07 11:41:00,43.7,41.5,29.60,WSW,250,3.5,3.5,92,0.02,-DZ,OVC,0.06,0.0,WeatherDisplay:10.37,2013-03-07 11:41:00,
2013-03-07 11:46:00,43.6,41.4,29.60,West,270,5.8,5.8,92,0.02,-DZ,OVC,0.07,0.0,WeatherDisplay:10.37,2013-03-07 11:46:00,
2013-03-07 11:51:00,43.6,41.4,29.59,SSE,152,5.8,5.8,92,0.02,-RA,OVC,0.07,0.0,WeatherDisplay:10.37,2013-03-07 11:51:00,
2013-03-07 11:56:00,43.7,41.5,29.60,SSE,148,2.3,2.3,92,0.02,-RA,OVC,0.07,0.0,WeatherDisplay:10.37,2013-03-07 11:56:00,
2013-03-07 12:02:00,43.8,41.6,29.60,SSE,148,4.6,4.6,92,0.02,-RA,OVC,0.07,0.0,WeatherDisplay:10.37,2013-03-07 12:02:00,
2013-03-07 12:07:00,43.8,41.6,29.60,NW,321,4.6,4.6,92,0.02,-RA,OVC,0.07,0.0,WeatherDisplay:10.37,2013-03-07 12:07:00,
2013-03-07 12:12:00,43.7,41.5,29.61,WNW,302,1.2,1.2,92,0.02,-RA,OVC,0.07,0.0,WeatherDisplay:10.37,2013-03-07 12:12:00,
2013-03-07 12:17:00,43.7,41.5,29.60,NW,314,3.5,3.5,92,0.02,-DZ,OVC,0.08,0.0,WeatherDisplay:10.37,2013-03-07 12:17:00,
2013-03-07 12:22:00,43.7,41.5,29.60,NNW,342,2.3,2.3,92,0.02,-DZ,OVC,0.08,0.0,WeatherDisplay:10.37,2013-03-07 12:22:00,
2013-03-07 12:27:00,43.8,41.6,29.60,South,183,2.3,2.3,92,0.02,-DZ,OVC,0.08,0.0,WeatherDisplay:10.37,2013-03-07 12:27:00,
2013-03-07 12:32:00,43.8,41.6,29.61,SE,134,4.6,4.6,92,0.02,-DZ,OVC,0.08,0.0,WeatherDisplay:10.37,2013-03-07 12:32:00,
2013-03-07 12:37:00,43.7,41.5,29.62,ESE,106,6.9,6.9,92,0.02,-DZ,OVC,0.08,0.0,WeatherDisplay:10.37,2013-03-07 12:37:00,
2013-03-07 12:42:00,43.6,41.1,29.62,South,176,3.5,3.5,91,0.02,-DZ,OVC,0.08,0.0,WeatherDisplay:10.37,2013-03-07 12:42:00,
2013-03-07 12:47:00,43.5,41.0,29.62,WNW,283,5.8,5.8,91,0.01,-DZ,OVC,0.08,0.0,WeatherDisplay:10.37,2013-03-07 12:47:00,
2013-03-07 12:52:00,43.3,40.8,29.61,West,260,4.0,4.0,91,0.01,-DZ,OVC,0.08,0.0,WeatherDisplay:10.37,2013-03-07 12:52:00,
2013-03-07 12:57:00,43.3,41.1,29.61,SSW,198,3.5,3.5,92,0.01,-DZ,OVC,0.08,0.0,WeatherDisplay:10.37,2013-03-07 12:57:00,
2013-03-07 13:02:00,43.3,41.1,29.60,ESE,107,4.6,4.6,92,0.01,-DZ,OVC,0.08,0.0,WeatherDisplay:10.37,2013-03-07 13:02:00,
2013-03-07 13:07:00,43.4,41.2,29.60,NE,36,3.5,3.5,92,0.02,-DZ,OVC,0.09,0.0,WeatherDisplay:10.37,2013-03-07 13:07:00,
2013-03-07 13:12:00,43.3,41.1,29.59,West,280,3.5,3.5,92,0.02,-DZ,OVC,0.09,0.0,WeatherDisplay:10.37,2013-03-07 13:12:00,
2013-03-07 13:17:00,43.3,41.1,29.59,ESE,118,3.5,3.5,92,0.01,-DZ,OVC,0.09,0.0,WeatherDisplay:10.37,2013-03-07 13:17:00,
2013-03-07 13:22:00,43.3,41.1,29.59,SW,215,3.5,3.5,92,0.01,-DZ,OVC,0.09,0.0,WeatherDisplay:10.37,2013-03-07 13:22:00,
2013-03-07 13:27:00,43.4,41.2,29.58,WNW,294,4.6,4.6,92,0.02,-DZ,OVC,0.09,0.0,WeatherDisplay:10.37,2013-03-07 13:27:00,
2013-03-07 13:32:00,43.5,41.0,29.58,SW,225,9.2,9.2,91,0.02,-DZ,OVC,0.09,0.0,WeatherDisplay:10.37,2013-03-07 13:32:00,
2013-03-07 13:37:00,43.7,41.5,29.58,NW,307,2.3,2.3,92,0.02,-DZ,OVC,0.09,0.0,WeatherDisplay:10.37,2013-03-07 13:37:00,
2013-03-07 13:43:00,43.9,41.7,29.58,ESE,115,5.0,5.0,92,0.02,-DZ,OVC,0.09,0.0,WeatherDisplay:10.37,2013-03-07 13:43:00,
2013-03-07 13:48:00,44.3,41.8,29.59,NNW,334,6.9,6.9,91,0.02,-DZ,OVC,0.09,0.0,WeatherDisplay:10.37,2013-03-07 13:48:00,
2013-03-07 13:53:00,44.4,41.9,29.60,WNW,289,3.5,3.5,91,0.02,-DZ,OVC,0.09,0.0,WeatherDisplay:10.37,2013-03-07 13:53:00,
2013-03-07 13:58:00,44.4,41.9,29.60,SE,129,5.8,5.8,91,0.02,-DZ,OVC,0.09,0.0,WeatherDisplay:10.37,2013-03-07 13:58:00,
2013-03-07 14:03:00,44.1,41.6,29.60,NW,325,3.5,3.5,91,0.02,-DZ,OVC,0.09,0.0,WeatherDisplay:10.37,2013-03-07 14:03:00,
2013-03-07 14:08:00,44.0,41.5,29.59,South,187,3.5,3.5,91,0.01,-DZ,OVC,0.09,0.0,WeatherDisplay:10.37,2013-03-07 14:08:00,
2013-03-07 14:13:00,44.1,41.6,29.59,NW,316,6.9,6.9,91,0.01,-DZ,OVC,0.09,0.0,WeatherDisplay:10.37,2013-03-07 14:13:00,
2013-03-07 14:18:00,44.2,41.7,29.59,WSW,253,4.6,4.6,91,0.01,-DZ,OVC,0.09,0.0,WeatherDisplay:10.37,2013-03-07 14:18:00,
2013-03-07 14:23:00,44.1,41.6,29.59,WNW,288,3.5,3.5,91,0.01,-DZ,OVC,0.09,0.0,WeatherDisplay:10.37,2013-03-07 14:23:00,
2013-03-07 14:28:00,44.1,41.4,29.59,SW,221,8.1,8.1,90,0.00,-DZ,OVC,0.09,0.0,WeatherDisplay:10.37,2013-03-07 14:28:00,
2013-03-07 14:33:00,44.2,41.7,29.59,NE,41,8.1,8.1,91,0.00,-DZ,OVC,0.09,0.0,WeatherDisplay:10.37,2013-03-07 14:33:00,
2013-03-07 14:38:00,44.3,41.8,29.58,WNW,288,3.5,3.5,91,0.00,-DZ,OVC,0.09,0.0,WeatherDisplay:10.37,2013-03-07 14:38:00,
2013-03-07 14:44:00,44.3,41.6,29.58,NE,47,8.1,8.1,90,0.00,-DZ,OVC,0.09,0.0,WeatherDisplay:10.37,2013-03-07 14:44:00,
2013-03-07 14:49:00,44.4,41.7,29.59,WSW,241,4.6,4.6,90,0.00,OVC,,0.09,0.0,WeatherDisplay:10.37,2013-03-07 14:49:00,
2013-03-07 14:54:00,44.3,41.6,29.59,West,271,3.5,3.5,90,0.00,OVC,,0.09,0.0,WeatherDisplay:10.37,2013-03-07 14:54:00,
2013-03-07 14:59:00,44.2,41.2,29.59,NNW,332,3.5,3.5,89,0.00,OVC,,0.09,0.0,WeatherDisplay:10.37,2013-03-07 14:59:00,
2013-03-07 15:04:00,44.0,41.0,29.59,WSW,240,10.4,10.4,89,0.00,OVC,,0.09,0.0,WeatherDisplay:10.37,2013-03-07 15:04:00,
2013-03-07 15:09:00,43.8,40.8,29.59,SSE,150,6.9,6.9,89,0.00,OVC,,0.09,0.0,WeatherDisplay:10.37,2013-03-07 15:09:00,
2013-03-07 15:14:00,43.6,40.6,29.59,SE,129,3.5,3.5,89,0.00,OVC,,0.09,0.0,WeatherDisplay:10.37,2013-03-07 15:14:00,
2013-03-07 15:19:00,43.5,40.5,29.59,NE,37,3.5,3.5,89,0.00,OVC,,0.09,0.0,WeatherDisplay:10.37,2013-03-07 15:19:00,
2013-03-07 15:24:00,43.4,40.4,29.59,WSW,256,5.8,5.8,89,0.00,OVC,,0.09,0.0,WeatherDisplay:10.37,2013-03-07 15:24:00,
2013-03-07 15:29:00,43.4,40.4,29.59,ESE,106,4.6,4.6,89,0.00,OVC,,0.09,0.0,WeatherDisplay:10.37,2013-03-07 15:29:00,
2013-03-07 15:34:00,43.3,40.3,29.59,East,84,4.6,4.6,89,0.00,OVC,,0.09,0.0,WeatherDisplay:10.37,2013-03-07 15:34:00,
2013-03-07 15:39:00,43.3,40.3,29.59,SE,132,3.5,3.5,89,0.00,OVC,,0.09,0.0,WeatherDisplay:10.37,2013-03-07 15:39:00,
2013-03-07 15:44:00,43.2,40.2,29.58,WSW,242,3.5,3.5,89,0.00,OVC,,0.09,0.0,WeatherDisplay:10.37,2013-03-07 15:44:00,
2013-03-07 15:49:00,43.2,40.2,29.58,NW,308,2.3,2.3,89,0.00,OVC,,0.09,0.0,WeatherDisplay:10.37,2013-03-07 15:49:00,
2013-03-07 15:54:00,43.1,40.1,29.58,West,270,2.3,2.3,89,0.00,OVC,,0.09,0.0,WeatherDisplay:10.37,2013-03-07 15:54:00,
2013-03-07 15:59:00,43.1,40.1,29.58,SE,142,5.8,5.8,89,0.00,OVC,,0.09,0.0,WeatherDisplay:10.37,2013-03-07 15:59:00,
2013-03-07 16:04:00,43.0,40.0,29.58,West,262,5.8,5.8,89,0.00,OVC,,0.09,0.0,WeatherDisplay:10.37,2013-03-07 16:04:00,
2013-03-07 16:09:00,42.9,39.9,29.58,SSW,198,9.2,9.2,89,0.00,OVC,,0.09,0.0,WeatherDisplay:10.37,2013-03-07 16:09:00,
2013-03-07 16:15:00,42.9,39.9,29.58,West,278,1.0,6.0,89,0.00,OVC,OVC,0.09,0.0,WeatherDisplay:10.37,2013-03-07 16:15:00,
2013-03-07 16:20:00,42.9,39.9,29.58,WSW,257,2.0,7.0,89,0.00,OVC,OVC,0.09,0.0,WeatherDisplay:10.37,2013-03-07 16:20:00,
2013-03-07 16:25:00,42.8,39.8,29.58,SW,235,3.5,3.5,89,0.00,OVC,,0.09,0.0,WeatherDisplay:10.37,2013-03-07 16:25:00,
2013-03-07 16:30:00,42.7,39.7,29.58,SSW,211,2.0,7.0,89,0.00,OVC,OVC,0.09,0.0,WeatherDisplay:10.37,2013-03-07 16:30:00,
2013-03-07 16:35:00,42.7,39.7,29.58,WSW,252,2.0,6.0,89,0.00,OVC,OVC,0.09,0.0,WeatherDisplay:10.37,2013-03-07 16:35:00,
2013-03-07 16:40:00,42.6,39.6,29.58,West,279,1.0,5.0,89,0.00,OVC,OVC,0.09,0.0,WeatherDisplay:10.37,2013-03-07 16:40:00,
2013-03-07 16:45:00,42.5,39.5,29.58,WSW,244,1.0,7.0,89,0.00,OVC,OVC,0.09,0.0,WeatherDisplay:10.37,2013-03-07 16:45:00,
2013-03-07 16:50:00,42.4,39.4,29.59,WNW,292,4.6,4.6,89,0.00,OVC,,0.09,0.0,WeatherDisplay:10.37,2013-03-07 16:50:00,
2013-03-07 16:55:00,42.3,39.3,29.59,SW,236,2.0,8.0,89,0.00,OVC,OVC,0.09,0.0,WeatherDisplay:10.37,2013-03-07 16:55:00,
2013-03-07 17:00:00,42.3,39.3,29.58,WSW,248,3.5,3.5,89,0.00,OVC,,0.09,0.0,WeatherDisplay:10.37,2013-03-07 17:00:00,
2013-03-07 17:05:00,42.2,39.2,29.58,SW,219,2.0,4.0,89,0.00,OVC,OVC,0.09,0.0,WeatherDisplay:10.37,2013-03-07 17:05:00,
2013-03-07 17:10:00,42.2,39.2,29.59,South,172,2.0,9.0,89,0.00,OVC,OVC,0.09,0.0,WeatherDisplay:10.37,2013-03-07 17:10:00,
2013-03-07 17:15:00,42.1,39.1,29.59,SE,140,1.0,8.0,89,0.00,OVC,OVC,0.09,0.0,WeatherDisplay:10.37,2013-03-07 17:15:00,
2013-03-07 17:20:00,42.1,39.1,29.59,North,5,3.5,3.5,89,0.00,OVC,,0.09,0.0,WeatherDisplay:10.37,2013-03-07 17:20:00,
2013-03-07 17:25:00,42.1,39.1,29.59,NNW,335,3.5,3.5,89,0.00,OVC,,0.09,0.0,WeatherDisplay:10.37,2013-03-07 17:25:00,
2013-03-07 17:30:00,42.0,39.0,29.59,NW,319,3.5,3.5,89,0.00,OVC,,0.09,0.0,WeatherDisplay:10.37,2013-03-07 17:30:00,
2013-03-07 17:35:00,42.0,39.0,29.59,South,187,2.0,8.0,89,0.00,OVC,OVC,0.09,0.0,WeatherDisplay:10.37,2013-03-07 17:35:00,
2013-03-07 17:40:00,41.9,38.9,29.59,SSW,208,1.0,6.0,89,0.00,OVC,OVC,0.09,0.0,WeatherDisplay:10.37,2013-03-07 17:40:00,
2013-03-07 17:45:00,41.9,38.9,29.59,SSW,203,0.0,6.0,89,0.00,OVC,OVC,0.09,0.0,WeatherDisplay:10.37,2013-03-07 17:45:00,
2013-03-07 17:50:00,41.9,38.9,29.59,WNW,292,5.8,5.8,89,0.00,OVC,,0.09,0.0,WeatherDisplay:10.37,2013-03-07 17:50:00,
2013-03-07 17:55:00,41.9,38.9,29.59,NNE,33,5.8,5.8,89,0.00,OVC,,0.09,0.0,WeatherDisplay:10.37,2013-03-07 17:55:00,
2013-03-07 18:00:00,41.9,38.9,29.59,WNW,302,3.5,3.5,89,0.00,OVC,,0.09,0.0,WeatherDisplay:10.37,2013-03-07 18:00:00,
2013-03-07 18:05:00,41.8,38.8,29.59,SSE,148,3.5,3.5,89,0.00,OVC,,0.09,0.0,WeatherDisplay:10.37,2013-03-07 18:05:00,
2013-03-07 18:10:00,41.8,38.8,29.59,SE,138,3.5,3.5,89,0.00,OVC,,0.09,0.0,WeatherDisplay:10.37,2013-03-07 18:10:00,
2013-03-07 18:15:00,41.8,38.5,29.60,West,270,2.0,12.0,88,0.00,OVC,OVC,0.09,0.0,WeatherDisplay:10.37,2013-03-07 18:15:00,
2013-03-07 18:20:00,41.8,38.8,29.60,West,276,2.0,12.0,89,0.00,OVC,OVC,0.09,0.0,WeatherDisplay:10.37,2013-03-07 18:20:00,
2013-03-07 18:25:00,41.7,38.4,29.60,SW,231,3.0,12.0,88,0.00,OVC,OVC,0.09,0.0,WeatherDisplay:10.37,2013-03-07 18:25:00,
2013-03-07 18:30:00,41.7,38.4,29.60,SSW,204,5.8,5.8,88,0.00,OVC,,0.09,0.0,WeatherDisplay:10.37,2013-03-07 18:30:00,
2013-03-07 18:35:00,41.7,38.7,29.60,NW,317,2.0,6.0,89,0.00,OVC,OVC,0.09,0.0,WeatherDisplay:10.37,2013-03-07 18:35:00,
2013-03-07 18:40:00,41.7,38.7,29.60,SSW,193,4.6,4.6,89,0.00,OVC,,0.09,0.0,WeatherDisplay:10.37,2013-03-07 18:40:00,
2013-03-07 18:45:00,41.6,38.6,29.61,South,177,4.6,4.6,89,0.00,OVC,,0.09,0.0,WeatherDisplay:10.37,2013-03-07 18:45:00,
2013-03-07 18:50:00,41.6,38.6,29.61,South,191,4.6,4.6,89,0.00,OVC,,0.09,0.0,WeatherDisplay:10.37,2013-03-07 18:50:00,
2013-03-07 18:55:00,41.5,38.5,29.60,West,263,3.5,3.5,89,0.00,OVC,,0.09,0.0,WeatherDisplay:10.37,2013-03-07 18:55:00,
2013-03-07 19:00:00,41.5,38.5,29.60,NE,40,4.6,4.6,89,0.00,OVC,,0.09,0.0,WeatherDisplay:10.37,2013-03-07 19:00:00,
2013-03-07 19:05:00,41.5,38.5,29.61,ESE,117,5.8,5.8,89,0.00,OVC,,0.09,0.0,WeatherDisplay:10.37,2013-03-07 19:05:00,
2013-03-07 19:10:00,41.5,38.5,29.61,WNW,294,9.2,9.2,89,0.00,OVC,,0.09,0.0,WeatherDisplay:10.37,2013-03-07 19:10:00,
2013-03-07 19:15:00,41.5,38.5,29.61,West,280,4.6,4.6,89,0.00,OVC,,0.09,0.0,WeatherDisplay:10.37,2013-03-07 19:15:00,
2013-03-07 19:20:00,41.5,38.5,29.61,WNW,303,3.5,3.5,89,0.00,OVC,,0.09,0.0,WeatherDisplay:10.37,2013-03-07 19:20:00,
2013-03-07 19:25:00,41.5,38.5,29.61,ESE,119,4.6,4.6,89,0.00,OVC,,0.09,0.0,WeatherDisplay:10.37,2013-03-07 19:25:00,
2013-03-07 19:30:00,41.5,38.5,29.61,SW,235,4.6,4.6,89,0.00,OVC,,0.09,0.0,WeatherDisplay:10.37,2013-03-07 19:30:00,
2013-03-07 19:35:00,41.5,38.2,29.61,NNW,336,7.0,7.0,88,0.00,OVC,,0.09,0.0,WeatherDisplay:10.37,2013-03-07 19:35:00,
2013-03-07 19:40:00,41.5,38.2,29.61,NNW,334,3.5,3.5,88,0.00,OVC,,0.09,0.0,WeatherDisplay:10.37,2013-03-07 19:40:00,
2013-03-07 19:45:00,41.5,38.5,29.61,WNW,293,3.5,3.5,89,0.00,OVC,,0.09,0.0,WeatherDisplay:10.37,2013-03-07 19:45:00,
2013-03-07 19:50:00,41.5,38.5,29.61,WNW,283,3.5,3.5,89,0.00,OVC,,0.09,0.0,WeatherDisplay:10.37,2013-03-07 19:50:00,
2013-03-07 19:55:00,41.5,38.5,29.61,WNW,287,6.9,6.9,89,0.00,OVC,,0.09,0.0,WeatherDisplay:10.37,2013-03-07 19:55:00,
2013-03-07 20:00:00,41.5,38.5,29.61,SSW,193,6.9,6.9,89,0.00,OVC,,0.09,0.0,WeatherDisplay:10.37,2013-03-07 20:00:00,
2013-03-07 20:05:00,41.5,38.2,29.61,North,356,5.8,5.8,88,0.00,OVC,,0.09,0.0,WeatherDisplay:10.37,2013-03-07 20:05:00,
2013-03-07 20:10:00,41.5,38.5,29.61,WSW,253,4.6,4.6,89,0.00,OVC,,0.09,0.0,WeatherDisplay:10.37,2013-03-07 20:10:00,
2013-03-07 20:15:00,41.5,38.2,29.61,SW,228,4.6,4.6,88,0.00,OVC,,0.09,0.0,WeatherDisplay:10.37,2013-03-07 20:15:00,
2013-03-07 20:20:00,41.5,38.2,29.61,WNW,284,3.5,3.5,88,0.00,OVC,,0.09,0.0,WeatherDisplay:10.37,2013-03-07 20:20:00,
2013-03-07 20:26:00,41.5,38.2,29.61,West,276,8.1,8.1,88,0.00,OVC,,0.09,0.0,WeatherDisplay:10.37,2013-03-07 20:26:00,
2013-03-07 20:31:00,41.5,38.2,29.61,North,11,6.9,6.9,88,0.00,OVC,,0.09,0.0,WeatherDisplay:10.37,2013-03-07 20:31:00,
2013-03-07 20:36:00,41.6,38.3,29.61,SW,229,4.0,4.0,88,0.00,OVC,,0.09,0.0,WeatherDisplay:10.37,2013-03-07 20:36:00,
2013-03-07 20:41:00,41.5,38.2,29.61,ENE,67,5.8,5.8,88,0.00,OVC,,0.09,0.0,WeatherDisplay:10.37,2013-03-07 20:41:00,
2013-03-07 20:46:00,41.5,38.2,29.61,South,180,4.6,4.6,88,0.00,OVC,,0.09,0.0,WeatherDisplay:10.37,2013-03-07 20:46:00,
2013-03-07 20:51:00,41.5,38.2,29.61,ENE,77,5.8,5.8,88,0.00,OVC,,0.09,0.0,WeatherDisplay:10.37,2013-03-07 20:51:00,
2013-03-07 20:56:00,41.5,38.2,29.62,North,1,3.5,3.5,88,0.00,OVC,,0.09,0.0,WeatherDisplay:10.37,2013-03-07 20:56:00,
2013-03-07 21:01:00,41.6,38.3,29.61,ESE,122,3.5,3.5,88,0.00,OVC,,0.09,0.0,WeatherDisplay:10.37,2013-03-07 21:01:00,
2013-03-07 21:06:00,41.6,38.3,29.62,SSW,195,3.5,3.5,88,0.00,OVC,,0.09,0.0,WeatherDisplay:10.37,2013-03-07 21:06:00,
2013-03-07 21:11:00,41.6,38.3,29.61,NNW,345,3.0,3.0,88,0.00,OVC,,0.09,0.0,WeatherDisplay:10.37,2013-03-07 21:11:00,
2013-03-07 21:16:00,41.6,38.3,29.62,NNW,339,5.8,5.8,88,0.00,OVC,,0.09,0.0,WeatherDisplay:10.37,2013-03-07 21:16:00,
2013-03-07 21:21:00,41.6,38.3,29.61,NW,315,3.5,3.5,88,0.00,OVC,,0.09,0.0,WeatherDisplay:10.37,2013-03-07 21:21:00,
2013-03-07 21:26:00,41.6,38.3,29.61,NW,305,3.5,3.5,88,0.00,OVC,,0.09,0.0,WeatherDisplay:10.37,2013-03-07 21:26:00,
2013-03-07 21:31:00,41.6,38.0,29.61,East,101,9.2,9.2,87,0.00,OVC,,0.09,0.0,WeatherDisplay:10.37,2013-03-07 21:31:00,
2013-03-07 21:36:00,41.6,38.3,29.61,SW,233,5.8,5.8,88,0.00,OVC,,0.09,0.0,WeatherDisplay:10.37,2013-03-07 21:36:00,
2013-03-07 21:41:00,41.5,37.9,29.61,NW,312,11.5,11.5,87,0.00,OVC,,0.09,0.0,WeatherDisplay:10.37,2013-03-07 21:41:00,
2013-03-07 21:46:00,41.5,37.9,29.61,NNW,335,8.1,8.1,87,0.00,OVC,,0.09,0.0,WeatherDisplay:10.37,2013-03-07 21:46:00,
2013-03-07 21:51:00,41.5,37.9,29.61,SW,221,4.6,4.6,87,0.00,OVC,,0.09,0.0,WeatherDisplay:10.37,2013-03-07 21:51:00,
2013-03-07 21:57:00,41.5,37.9,29.61,North,357,5.8,5.8,87,0.00,OVC,,0.09,0.0,WeatherDisplay:10.37,2013-03-07 21:57:00,
2013-03-07 22:02:00,41.4,37.8,29.61,NNW,348,5.0,5.0,87,0.00,OVC,,0.09,0.0,WeatherDisplay:10.37,2013-03-07 22:02:00,
2013-03-07 22:07:00,41.3,37.7,29.61,NW,314,9.2,9.2,87,0.00,OVC,,0.09,0.0,WeatherDisplay:10.37,2013-03-07 22:07:00,
2013-03-07 22:12:00,41.3,37.7,29.61,NW,321,5.8,5.8,87,0.00,OVC,,0.09,0.0,WeatherDisplay:10.37,2013-03-07 22:12:00,
2013-03-07 22:17:00,41.3,37.7,29.61,SE,129,5.8,5.8,87,0.00,OVC,,0.09,0.0,WeatherDisplay:10.37,2013-03-07 22:17:00,
2013-03-07 22:22:00,41.3,37.7,29.61,SW,221,10.4,10.4,87,0.00,OVC,,0.09,0.0,WeatherDisplay:10.37,2013-03-07 22:22:00,
2013-03-07 22:27:00,41.3,37.7,29.61,East,94,6.0,6.0,87,0.00,OVC,,0.09,0.0,WeatherDisplay:10.37,2013-03-07 22:27:00,
2013-03-07 22:32:00,41.2,37.6,29.61,WNW,300,5.8,5.8,87,0.00,OVC,,0.09,0.0,WeatherDisplay:10.37,2013-03-07 22:32:00,
2013-03-07 22:37:00,41.2,37.6,29.61,WSW,252,3.5,3.5,87,0.00,OVC,,0.09,0.0,WeatherDisplay:10.37,2013-03-07 22:37:00,
2013-03-07 22:42:00,41.2,37.6,29.61,WSW,250,8.1,8.1,87,0.00,OVC,,0.09,0.0,WeatherDisplay:10.37,2013-03-07 22:42:00,
2013-03-07 22:47:00,41.1,37.5,29.61,WNW,295,3.5,3.5,87,0.00,OVC,,0.09,0.0,WeatherDisplay:10.37,2013-03-07 22:47:00,
2013-03-07 22:53:00,41.1,37.5,29.61,ENE,60,4.0,4.0,87,0.00,OVC,,0.09,0.0,WeatherDisplay:10.37,2013-03-07 22:53:00,
2013-03-07 22:58:00,41.1,37.5,29.61,South,174,4.6,4.6,87,0.00,OVC,,0.09,0.0,WeatherDisplay:10.37,2013-03-07 22:58:00,
2013-03-07 23:03:00,41.1,37.5,29.61,ESE,121,3.5,3.5,87,0.00,OVC,,0.09,0.0,WeatherDisplay:10.37,2013-03-07 23:03:00,
2013-03-07 23:08:00,41.1,37.5,29.62,SE,136,3.5,3.5,87,0.00,OVC,,0.09,0.0,WeatherDisplay:10.37,2013-03-07 23:08:00,
2013-03-07 23:13:00,41.0,37.4,29.61,WSW,248,5.8,5.8,87,0.00,OVC,,0.09,0.0,WeatherDisplay:10.37,2013-03-07 23:13:00,
2013-03-07 23:18:00,41.0,37.4,29.62,NW,321,2.3,2.3,87,0.00,OVC,,0.09,0.0,WeatherDisplay:10.37,2013-03-07 23:18:00,
2013-03-07 23:23:00,40.9,37.3,29.62,WNW,291,8.1,8.1,87,0.00,OVC,,0.09,0.0,WeatherDisplay:10.37,2013-03-07 23:23:00,
2013-03-07 23:28:00,40.9,37.3,29.62,WSW,257,4.6,4.6,87,0.00,OVC,,0.09,0.0,WeatherDisplay:10.37,2013-03-07 23:28:00,
2013-03-07 23:33:00,40.8,37.5,29.62,West,263,4.6,4.6,88,0.00,OVC,,0.09,0.0,WeatherDisplay:10.37,2013-03-07 23:33:00,
2013-03-07 23:38:00,40.8,37.5,29.62,West,280,4.6,4.6,88,0.00,OVC,,0.09,0.0,WeatherDisplay:10.37,2013-03-07 23:38:00,
2013-03-07 23:43:00,40.8,37.5,29.61,ESE,122,5.0,5.0,88,0.00,OVC,,0.09,0.0,WeatherDisplay:10.37,2013-03-07 23:43:00,
2013-03-07 23:48:00,40.7,37.4,29.61,NNW,347,4.0,4.0,88,0.00,OVC,,0.09,0.0,WeatherDisplay:10.37,2013-03-07 23:48:00,
2013-03-07 23:53:00,40.7,37.1,29.61,South,188,5.8,5.8,87,0.00,OVC,,0.09,0.0,WeatherDisplay:10.37,2013-03-07 23:53:00,
2013-03-07 23:58:00,40.7,37.1,29.61,NW,321,6.9,6.9,87,0.00,OVC,,0.09,0.0,WeatherDisplay:10.37,2013-03-07 23:58:00,